Flag for United Kingdom Past Weather in Newport (Isle of Wight), England, United Kingdom — Yesterday and Last 2 Weeks

Now
62 °F

Cool.


Feels Like: 62 °F
Forecast: 55 / 62 °F
Wind: 23 mph from Southwest

Location: Saint Catherine's Point

Current Time: Sep 29, 2016 at 4:33:23 AM

Latest Report: Sep 29, 2016 at 3:00 AM


Visibility: N/A

Pressure: 30.11 "Hg

Humidity: 99%

Dew Point: 62 °F

Location of Newport (Isle of Wight)Location

Past Weather in Newport (Isle of Wight) — Graph

°F

Newport (Isle of Wight) Temperature Yesterday

Maximum temperature yesterday: 64 °F (at 12:00 PM)
Minimum temperature yesterday: 60 °F (at 7:00 AM)
Average temperature yesterday: 62 °F

High & Low Weather Summary for the Past Weeks

 TemperatureHumidityPressure
High75 °F (Sep 15, 12:00 PM)99% (Sep 28, 11:00 PM)30.32 "Hg (Sep 28, 11:00 PM)
Low54 °F (Sep 17, 7:00 AM)51% (Sep 23, 12:00 PM)29.68 "Hg (Sep 14, 7:00 AM)
Average62 °F81%30.08 "Hg
* Reported Sep 14 3:00 AM — Sep 29 3:00 AM, Newport (Isle of Wight), Weather by CustomWeather, © 2016

Note: Actual official high and low records may vary slightly from our data, if they occured in-between our weather recording intervals... More about our weather records

Advertising

Newport (Isle of Wight) Weather History for the Previous 24 Hours

Scroll right to see more
 ConditionsComfort  
Time TempWeatherWind HumidityBarometerVisibility
3:00 AM
Thu, Sep 29
62 °FCool.23 mph99%30.11 "HgN/A
2:00 AM62 °FCool.26 mph98%30.13 "HgN/A
1:00 AM62 °FCool.24 mph99%30.15 "HgN/A
12:00 AM62 °FCool.24 mph99%30.18 "HgN/A
11:00 PM
Wed, Sep 28
62 °FCool.25 mph99%30.20 "HgN/A
10:00 PM62 °FCool.23 mph98%30.21 "HgN/A
9:00 PM62 °FCool.24 mph98%30.23 "HgN/A
8:00 PM61 °FCool.21 mph97%30.24 "HgN/A
7:00 PM62 °FCool.20 mph95%30.26 "HgN/A
6:00 PM62 °FCool.18 mph93%30.27 "HgN/A
5:00 PM62 °FCool.20 mph90%30.29 "HgN/A
4:00 PM63 °FMild.21 mph89%30.29 "HgN/A
3:00 PM62 °FCool.22 mph87%30.30 "HgN/A
2:00 PM63 °FMild.22 mph85%30.30 "HgN/A
1:00 PM64 °FMild.21 mph84%30.31 "HgN/A
12:00 PM64 °FMild.20 mph82%30.32 "HgN/A
11:00 AM63 °FMild.18 mph85%30.32 "HgN/A
10:00 AM63 °FMild.20 mph87%30.32 "HgN/A
9:00 AM62 °FCool.17 mph89%30.30 "HgN/A
8:00 AM60 °FCool.16 mph89%30.30 "HgN/A
7:00 AM60 °FCool.14 mph91%30.29 "HgN/A
6:00 AM60 °FCool.17 mph89%30.29 "HgN/A
5:00 AM60 °FCool.18 mph87%30.30 "HgN/A
4:00 AM60 °FCool.17 mph89%30.29 "HgN/A
Weather by CustomWeather, © 2016

See weather overviewHow to use our weather pages